,,,PA_Meas_PMT16A,,PR_Meas_QMR101_102,,RH_Meas_QMH101,,SR_Meas_QMS101,,TA_Meas_QMH101,,GenWind,,GenWind,
date,time,status,PA,status,PR,status,RH,status,SR,status,TA,status,DirAvg,status,SpdAvg,
2009-04-06, 00:00:05,VALID,999.821,VALID,0,VALID,94.737,VALID,0,VALID,23.389,VALID,148,VALID,0,
2009-04-06, 00:01:05,VALID,999.788,VALID,0,VALID,94.7446,VALID,0,VALID,23.3677,VALID,148,VALID,0.0484375,
2009-04-06, 00:02:05,VALID,999.789,VALID,0,VALID,94.6836,VALID,0,VALID,23.3695,VALID,148,VALID,0,
2009-04-06, 00:03:05,VALID,999.769,VALID,0,VALID,94.6912,VALID,0,VALID,23.35,VALID,148,VALID,0.313672,
2009-04-06, 00:04:05,VALID,999.753,VALID,0,VALID,94.7599,VALID,0,VALID,23.35,VALID,98,VALID,0.584375,
2009-04-06, 00:05:05,VALID,999.728,VALID,0,VALID,94.8438,VALID,0,VALID,23.3695,VALID,92,VALID,0.713672,
2009-04-06, 00:06:05,VALID,999.714,VALID,0,VALID,94.8133,VALID,0,VALID,23.3695,VALID,91,VALID,0.430469,
2009-04-06, 00:07:05,VALID,999.741,VALID,0,VALID,94.7675,VALID,0,VALID,23.3908,VALID,91,VALID,0.401953,
2009-04-06, 00:08:05,VALID,999.741,VALID,0,VALID,94.8133,VALID,0,VALID,23.3695,VALID,91,VALID,0.435547,
2009-04-06, 00:09:05,VALID,999.741,VALID,0,VALID,94.798,VALID,0.112286,VALID,23.3695,VALID,91,VALID,0.183984,
2009-04-06, 00:10:05,VALID,999.732,VALID,0,VALID,94.7751,VALID,0,VALID,23.35,VALID,91,VALID,0,
2009-04-06, 00:11:05,VALID,999.716,VALID,0,VALID,94.7217,VALID,0.112286,VALID,23.3305,VALID,91,VALID,0,
2009-04-06, 00:12:05,VALID,999.71,VALID,0,VALID,94.7446,VALID,0.112286,VALID,23.3305,VALID,91,VALID,0,
2009-04-06, 00:13:05,VALID,999.682,VALID,0,VALID,94.7751,VALID,0,VALID,23.3518,VALID,91,VALID,0,
2009-04-06, 00:14:05,VALID,999.663,VALID,0,VALID,94.6912,VALID,0,VALID,23.2915,VALID,91,VALID,0.203906,
2009-04-06, 00:15:05,VALID,999.635,VALID,0,VALID,94.5844,VALID,0,VALID,23.2134,VALID,91,VALID,0.275,
2009-04-06, 00:16:05,VALID,999.612,VALID,0,VALID,94.6378,VALID,0,VALID,23.1939,VALID,91,VALID,0.0359375,
2009-04-06, 00:17:05,VALID,999.572,VALID,0,VALID,94.6912,VALID,0.112286,VALID,23.1939,VALID,91,VALID,0,
2009-04-06, 00:18:05,VALID,999.544,VALID,0,VALID,94.7523,VALID,0,VALID,23.1549,VALID,91,VALID,0,
2009-04-06, 00:19:05,VALID,999.505,VALID,0,VALID,94.7523,VALID,0.112286,VALID,23.1549,VALID,91,VALID,0,
2009-04-06, 00:20:05,VALID,999.495,VALID,0,VALID,94.7828,VALID,0,VALID,23.1549,VALID,91,VALID,0,
2009-04-06, 00:21:05,VALID,999.47,VALID,0,VALID,94.8514,VALID,0,VALID,23.1549,VALID,91,VALID,0.234766,
2009-04-06, 00:22:05,VALID,999.46,VALID,0,VALID,94.7141,VALID,0,VALID,23.1159,VALID,85,VALID,0.454688,
2009-04-06, 00:23:05,VALID,999.43,VALID,0,VALID,94.737,VALID,0.112286,VALID,23.0964,VALID,39,VALID,0.710156,
2009-04-06, 00:24:05,VALID,999.391,VALID,0,VALID,94.8133,VALID,0.112286,VALID,23.0769,VALID,39,VALID,0.700391,
2009-04-06, 00:25:05,VALID,999.35,VALID,0,VALID,94.8209,VALID,0,VALID,23.0573,VALID,39,VALID,0.769531,
2009-04-06, 00:26:05,VALID,999.347,VALID,0,VALID,94.8285,VALID,0,VALID,23.0378,VALID,39,VALID,0.707812,
2009-04-06, 00:27:05,VALID,999.307,VALID,0,VALID,94.8514,VALID,0,VALID,23.0183,VALID,39,VALID,0.576563,
2009-04-06, 00:28:05,VALID,999.282,VALID,0,VALID,94.8743,VALID,0.112286,VALID,23.0183,VALID,39,VALID,0.526172,
2009-04-06, 00:29:05,VALID,999.257,VALID,0,VALID,94.8057,VALID,0.112286,VALID,22.9793,VALID,39,VALID,0.453906,
2009-04-06, 00:30:05,VALID,999.258,VALID,0,VALID,94.8514,VALID,0,VALID,22.9208,VALID,39,VALID,0.401172,
2009-04-06, 00:31:05,VALID,999.246,VALID,0,VALID,94.9659,VALID,0,VALID,22.9403,VALID,39,VALID,0.478906,
2009-04-06, 00:32:05,VALID,999.231,VALID,0,VALID,95.1261,VALID,0,VALID,22.9598,VALID,39,VALID,0.550781,
2009-04-06, 00:33:05,VALID,999.242,VALID,0,VALID,95.149,VALID,0,VALID,22.9988,VALID,39,VALID,0.676172,
2009-04-06, 00:34:05,VALID,999.231,VALID,0,VALID,95.1795,VALID,0.112286,VALID,23.0378,VALID,39,VALID,0.865234,
2009-04-06, 00:35:05,VALID,999.224,VALID,0,VALID,95.1261,VALID,0.112286,VALID,23.0378,VALID,42,VALID,0.992969,
2009-04-06, 00:36:05,VALID,999.261,VALID,0,VALID,95.1032,VALID,0,VALID,23.0378,VALID,43,VALID,1.07344,
2009-04-06, 00:37:05,VALID,999.263,VALID,0,VALID,95.149,VALID,0,VALID,23.0378,VALID,51,VALID,1.00508,
2009-04-06, 00:38:05,VALID,999.227,VALID,0,VALID,95.1185,VALID,0,VALID,23.0573,VALID,53,VALID,0.953516,
2009-04-06, 00:39:05,VALID,999.213,VALID,0,VALID,95.1643,VALID,0.112286,VALID,23.0769,VALID,54,VALID,0.957812,
2009-04-06, 00:40:05,VALID,999.213,VALID,0,VALID,95.1185,VALID,0,VALID,23.0769,VALID,63,VALID,0.878516,
2009-04-06, 00:41:05,VALID,999.176,VALID,0,VALID,95.1643,VALID,0.112286,VALID,23.0769,VALID,64,VALID,0.671484,
2009-04-06, 00:42:05,VALID,999.137,VALID,0,VALID,95.0574,VALID,0.112286,VALID,23.0166,VALID,71,VALID,0.482031,
2009-04-06, 00:43:05,VALID,999.119,VALID,0,VALID,95.0498,VALID,0.112286,VALID,22.9971,VALID,71,VALID,0.441016,
2009-04-06, 00:44:05,VALID,999.105,VALID,0,VALID,95.0498,VALID,0.112286,VALID,22.9988,VALID,76,VALID,0.327344,
2009-04-06, 00:45:05,VALID,999.113,VALID,0,VALID,95.0956,VALID,0,VALID,22.9988,VALID,76,VALID,0.379687,
2009-04-06, 00:46:05,VALID,999.063,VALID,0,VALID,95.1185,VALID,0,VALID,22.9988,VALID,85,VALID,0.487109,
2009-04-06, 00:47:05,VALID,999.097,VALID,0,VALID,95.1337,VALID,0,VALID,23.0183,VALID,99,VALID,0.469531,
2009-04-06, 00:48:05,VALID,999.089,VALID,0,VALID,95.1185,VALID,0.112286,VALID,23.0183,VALID,115,VALID,0.609375,
2009-04-06, 00:49:05,VALID,999.082,VALID,0,VALID,95.1261,VALID,0,VALID,22.9988,VALID,115,VALID,0.520312,
2009-04-06, 00:50:05,VALID,999.08,VALID,0,VALID,95.1337,VALID,0,VALID,22.9988,VALID,115,VALID,0.517969,
2009-04-06, 00:51:05,VALID,999.073,VALID,0,VALID,95.1337,VALID,0,VALID,23.0183,VALID,115,VALID,0.462891,
2009-04-06, 00:52:05,VALID,999.035,VALID,0,VALID,95.149,VALID,0,VALID,23.0006,VALID,115,VALID,0.385547,
2009-04-06, 00:53:05,VALID,998.991,VALID,0,VALID,95.1719,VALID,0,VALID,22.9988,VALID,115,VALID,0.310547,
2009-04-06, 00:54:05,VALID,999.012,VALID,0,VALID,95.1871,VALID,0,VALID,23.0201,VALID,115,VALID,0.570703,
2009-04-06, 00:55:05,VALID,999.024,VALID,0,VALID,95.1719,VALID,0,VALID,23.0201,VALID,129,VALID,0.617969,
2009-04-06, 00:56:04,VALID,998.998,VALID,0,VALID,95.1719,VALID,0,VALID,23.0396,VALID,133,VALID,0.623828,
2009-04-06, 00:57:04,VALID,999.006,VALID,0,VALID,95.1337,VALID,0,VALID,23.0201,VALID,134,VALID,0.473828,
2009-04-06, 00:58:04,VALID,998.979,VALID,0,VALID,95.1414,VALID,0,VALID,23.0201,VALID,141,VALID,0.536719,
2009-04-06, 00:59:04,VALID,998.972,VALID,0,VALID,95.1337,VALID,0,VALID,23.0006,VALID,142,VALID,0.434375,
2009-04-06, 01:00:04,VALID,998.968,VALID,0,VALID,95.1185,VALID,0,VALID,23.0006,VALID,142,VALID,0.301953,
2009-04-06, 01:01:04,VALID,998.948,VALID,0,VALID,95.0651,VALID,0,VALID,22.9811,VALID,142,VALID,0.0320312,
2009-04-06, 01:02:04,VALID,998.945,VALID,0,VALID,95.0269,VALID,0,VALID,22.942,VALID,142,VALID,0.237109,
2009-04-06, 01:03:04,VALID,998.96,VALID,0,VALID,95.0193,VALID,0,VALID,22.9225,VALID,142,VALID,0.255859,
2009-04-06, 01:04:04,VALID,998.943,VALID,0,VALID,95.0727,VALID,0,VALID,22.903,VALID,141,VALID,0.321094,
2009-04-06, 01:05:04,VALID,998.951,VALID,0,VALID,95.1414,VALID,0,VALID,22.903,VALID,141,VALID,0.337109,
2009-04-06, 01:06:04,VALID,998.988,VALID,0,VALID,95.149,VALID,0,VALID,22.942,VALID,141,VALID,0.317578,
2009-04-06, 01:07:04,VALID,998.972,VALID,0,VALID,95.0956,VALID,0,VALID,22.9225,VALID,141,VALID,0.285156,
2009-04-06, 01:08:04,VALID,998.953,VALID,0,VALID,95.088,VALID,0,VALID,22.903,VALID,141,VALID,0.173828,
2009-04-06, 01:09:04,VALID,998.949,VALID,0,VALID,95.0956,VALID,0,VALID,22.8818,VALID,141,VALID,0.0589844,
2009-04-06, 01:10:04,VALID,998.948,VALID,0,VALID,95.0422,VALID,0,VALID,22.8427,VALID,141,VALID,0,
2009-04-06, 01:11:04,VALID,998.945,VALID,0,VALID,95.0345,VALID,0,VALID,22.8037,VALID,141,VALID,0,
2009-04-06, 01:12:04,VALID,998.921,VALID,0,VALID,95.0498,VALID,0,VALID,22.8055,VALID,141,VALID,0.0746094,
2009-04-06, 01:13:04,VALID,998.912,VALID,0,VALID,95.0956,VALID,0,VALID,22.8055,VALID,141,VALID,0,
2009-04-06, 01:14:04,VALID,998.892,VALID,0,VALID,95.1185,VALID,0,VALID,22.8055,VALID,322,VALID,0.502344,
2009-04-06, 01:15:04,VALID,998.852,VALID,0,VALID,95.1414,VALID,0,VALID,22.8037,VALID,322,VALID,0.550781,
2009-04-06, 01:16:04,VALID,998.827,VALID,0,VALID,95.1414,VALID,0,VALID,22.825,VALID,322,VALID,0.496875,
2009-04-06, 01:17:04,VALID,998.798,VALID,0,VALID,95.1566,VALID,0,VALID,22.8445,VALID,322,VALID,0.328125,
2009-04-06, 01:18:04,VALID,998.784,VALID,0,VALID,95.1948,VALID,0,VALID,22.8445,VALID,322,VALID,0.189844,
2009-04-06, 01:19:04,VALID,998.777,VALID,0,VALID,95.1337,VALID,0,VALID,22.825,VALID,322,VALID,0.39375,
2009-04-06, 01:20:04,VALID,998.744,VALID,0,VALID,95.1948,VALID,0,VALID,22.864,VALID,40,VALID,0.699609,
2009-04-06, 01:21:04,VALID,998.771,VALID,0,VALID,95.1871,VALID,0,VALID,22.8818,VALID,134,VALID,0.716797,
2009-04-06, 01:22:04,VALID,998.762,VALID,0,VALID,95.1414,VALID,0,VALID,22.9208,VALID,127,VALID,0.7875,
2009-04-06, 01:23:04,VALID,998.73,VALID,0,VALID,95.0727,VALID,0,VALID,22.8818,VALID,121,VALID,0.860937,
2009-04-06, 01:24:04,VALID,998.719,VALID,0,VALID,95.0803,VALID,0,VALID,22.9013,VALID,122,VALID,0.648047,
2009-04-06, 01:25:04,VALID,998.69,VALID,0,VALID,95.0117,VALID,0,VALID,22.8818,VALID,109,VALID,0.673047,
2009-04-06, 01:26:04,VALID,998.687,VALID,0,VALID,95.0193,VALID,0.112286,VALID,22.8605,VALID,103,VALID,0.502734,
2009-04-06, 01:27:04,VALID,998.677,VALID,0,VALID,94.9964,VALID,0,VALID,22.8818,VALID,103,VALID,0.475781,
2009-04-06, 01:28:04,VALID,998.644,VALID,0,VALID,94.9277,VALID,0,VALID,22.8818,VALID,89,VALID,0.547656,
2009-04-06, 01:29:04,VALID,998.657,VALID,0,VALID,94.9125,VALID,0.112286,VALID,22.8623,VALID,89,VALID,0.502344,
2009-04-06, 01:30:04,VALID,998.633,VALID,0,VALID,94.882,VALID,0,VALID,22.8623,VALID,89,VALID,0.491016,
2009-04-06, 01:31:04,VALID,998.625,VALID,0,VALID,94.8896,VALID,0,VALID,22.8623,VALID,91,VALID,0.664063,
2009-04-06, 01:32:04,VALID,998.651,VALID,0,VALID,94.8743,VALID,0.112286,VALID,22.8623,VALID,99,VALID,0.338672,
2009-04-06, 01:33:04,VALID,998.658,VALID,0,VALID,94.8438,VALID,0,VALID,22.8623,VALID,101,VALID,0.422656,
2009-04-06, 01:34:04,VALID,998.657,VALID,0,VALID,94.8514,VALID,0.112286,VALID,22.8818,VALID,102,VALID,0.369141,
2009-04-06, 01:35:04,VALID,998.675,VALID,0,VALID,94.8438,VALID,0,VALID,22.8818,VALID,123,VALID,0.592969,
2009-04-06, 01:36:04,VALID,998.637,VALID,0,VALID,94.8133,VALID,0,VALID,22.9013,VALID,124,VALID,0.560547,
2009-04-06, 01:37:04,VALID,998.668,VALID,0,VALID,94.7599,VALID,0,VALID,22.903,VALID,122,VALID,0.669922,
2009-04-06, 01:38:04,VALID,998.629,VALID,0,VALID,94.676,VALID,0,VALID,22.903,VALID,119,VALID,0.560156,
2009-04-06, 01:39:04,VALID,998.633,VALID,0,VALID,94.6912,VALID,0,VALID,22.8835,VALID,119,VALID,0.499609,
2009-04-06, 01:40:04,VALID,998.636,VALID,0,VALID,94.6607,VALID,0,VALID,22.8835,VALID,119,VALID,0.426953,
2009-04-06, 01:41:04,VALID,998.602,VALID,0,VALID,94.6607,VALID,0,VALID,22.8835,VALID,119,VALID,0.405078,
2009-04-06, 01:42:04,VALID,998.573,VALID,0,VALID,94.6912,VALID,0,VALID,22.903,VALID,119,VALID,0.372656,
2009-04-06, 01:43:04,VALID,998.576,VALID,0,VALID,94.6607,VALID,0,VALID,22.8818,VALID,157,VALID,0.365625,
2009-04-06, 01:44:04,VALID,998.544,VALID,0,VALID,94.6988,VALID,0,VALID,22.9013,VALID,157,VALID,0.298828,
2009-04-06, 01:45:04,VALID,998.545,VALID,0,VALID,94.6836,VALID,0,VALID,22.9208,VALID,157,VALID,0.28125,
2009-04-06, 01:46:04,VALID,998.542,VALID,0,VALID,94.6378,VALID,0,VALID,22.9013,VALID,157,VALID,0.266016,
2009-04-06, 01:47:04,VALID,998.576,VALID,0,VALID,94.5997,VALID,0,VALID,22.903,VALID,157,VALID,0.252344,
2009-04-06, 01:48:04,VALID,998.57,VALID,0,VALID,94.6149,VALID,0,VALID,22.903,VALID,157,VALID,0.139453,
2009-04-06, 01:49:04,VALID,998.595,VALID,0,VALID,94.5997,VALID,0,VALID,22.903,VALID,157,VALID,0,
2009-04-06, 01:50:04,VALID,998.581,VALID,0,VALID,94.5997,VALID,0,VALID,22.864,VALID,157,VALID,0,
2009-04-06, 01:51:04,VALID,998.62,VALID,0,VALID,94.6226,VALID,0,VALID,22.864,VALID,157,VALID,0.683203,
2009-04-06, 01:52:04,VALID,998.587,VALID,0,VALID,94.7446,VALID,0,VALID,22.8623,VALID,169,VALID,1.05664,
2009-04-06, 01:53:04,VALID,998.58,VALID,0,VALID,94.8057,VALID,0,VALID,22.942,VALID,182,VALID,0.954297,
2009-04-06, 01:54:04,VALID,998.574,VALID,0,VALID,94.7904,VALID,0,VALID,22.9811,VALID,190,VALID,1.05273,
2009-04-06, 01:55:04,VALID,998.575,VALID,0,VALID,94.7599,VALID,0,VALID,23.0023,VALID,203,VALID,0.578516,
2009-04-06, 01:56:04,VALID,998.588,VALID,0,VALID,94.6454,VALID,0,VALID,23.0006,VALID,211,VALID,0.212891,
2009-04-06, 01:57:04,VALID,998.577,VALID,0,VALID,94.4394,VALID,0,VALID,22.942,VALID,333,VALID,0.971875,
2009-04-06, 01:58:04,VALID,998.59,VALID,0,VALID,94.325,VALID,0,VALID,22.864,VALID,338,VALID,0.946484,
2009-04-06, 01:59:04,VALID,998.566,VALID,0,VALID,94.2182,VALID,0,VALID,22.825,VALID,339,VALID,0.853906,
2009-04-06, 02:00:04,VALID,998.516,VALID,0,VALID,94.2105,VALID,0,VALID,22.786,VALID,339,VALID,0.753125,
2009-04-06, 02:01:04,VALID,998.523,VALID,0,VALID,94.325,VALID,0,VALID,22.7469,VALID,339,VALID,0.432813,
2009-04-06, 02:02:04,VALID,998.483,VALID,0,VALID,94.3631,VALID,0,VALID,22.7079,VALID,339,VALID,0.182422,
2009-04-06, 02:03:04,VALID,998.453,VALID,0,VALID,94.4471,VALID,0,VALID,22.6672,VALID,339,VALID,0,
2009-04-06, 02:04:04,VALID,998.426,VALID,0,VALID,94.4165,VALID,0,VALID,22.6282,VALID,339,VALID,0.308984,
2009-04-06, 02:05:04,VALID,998.409,VALID,0,VALID,94.6378,VALID,0,VALID,22.6494,VALID,339,VALID,0.500391,
2009-04-06, 02:06:04,VALID,998.435,VALID,0,VALID,94.7828,VALID,0,VALID,22.7079,VALID,339,VALID,0.444141,
2009-04-06, 02:07:04,VALID,998.406,VALID,0,VALID,94.8057,VALID,0,VALID,22.7274,VALID,339,VALID,0.469141,
2009-04-06, 02:08:04,VALID,998.394,VALID,0,VALID,94.8209,VALID,0,VALID,22.7274,VALID,339,VALID,0.363672,
2009-04-06, 02:09:04,VALID,998.382,VALID,0,VALID,94.8285,VALID,0,VALID,22.7274,VALID,339,VALID,0.169922,
2009-04-06, 02:10:04,VALID,998.402,VALID,0,VALID,94.7904,VALID,0,VALID,22.7257,VALID,339,VALID,0,
2009-04-06, 02:11:04,VALID,998.405,VALID,0,VALID,94.7675,VALID,0,VALID,22.7274,VALID,339,VALID,0,
2009-04-06, 02:12:04,VALID,998.39,VALID,0,VALID,94.7141,VALID,0,VALID,22.7079,VALID,339,VALID,0,
2009-04-06, 02:13:04,VALID,998.4,VALID,0,VALID,94.7294,VALID,0,VALID,22.7079,VALID,339,VALID,0,
2009-04-06, 02:14:04,VALID,998.338,VALID,0,VALID,94.7828,VALID,0,VALID,22.7096,VALID,339,VALID,0,
2009-04-06, 02:15:04,VALID,998.337,VALID,0,VALID,94.8667,VALID,0,VALID,22.7274,VALID,339,VALID,0.03125,
2009-04-06, 02:16:04,VALID,998.313,VALID,0,VALID,94.9048,VALID,0,VALID,22.7664,VALID,339,VALID,0.281641,
2009-04-06, 02:17:04,VALID,998.284,VALID,0,VALID,94.8896,VALID,0,VALID,22.7664,VALID,339,VALID,0.1875,
2009-04-06, 02:18:04,VALID,998.308,VALID,0,VALID,94.8896,VALID,0,VALID,22.7664,VALID,339,VALID,0,
2009-04-06, 02:19:04,VALID,998.318,VALID,0,VALID,94.8743,VALID,0,VALID,22.7469,VALID,339,VALID,0,
2009-04-06, 02:20:04,VALID,998.301,VALID,0,VALID,94.8591,VALID,0,VALID,22.7469,VALID,339,VALID,0.196484,
2009-04-06, 02:21:04,VALID,998.327,VALID,0,VALID,94.8438,VALID,0,VALID,22.7274,VALID,339,VALID,0.409375,
2009-04-06, 02:22:04,VALID,998.32,VALID,0,VALID,94.882,VALID,0,VALID,22.7274,VALID,339,VALID,0.75,
2009-04-06, 02:23:04,VALID,998.306,VALID,0,VALID,94.8285,VALID,0,VALID,22.7274,VALID,48,VALID,0.994531,
2009-04-06, 02:24:04,VALID,998.309,VALID,0,VALID,94.737,VALID,0,VALID,22.7079,VALID,48,VALID,1.09922,
2009-04-06, 02:25:04,VALID,998.302,VALID,0,VALID,94.7523,VALID,0,VALID,22.6689,VALID,52,VALID,1.14648,
2009-04-06, 02:26:04,VALID,998.303,VALID,0,VALID,94.7599,VALID,0,VALID,22.6901,VALID,58,VALID,0.990625,
2009-04-06, 02:27:04,VALID,998.272,VALID,0,VALID,94.7675,VALID,0,VALID,22.6494,VALID,62,VALID,0.83125,
2009-04-06, 02:28:04,VALID,998.247,VALID,0,VALID,94.7751,VALID,0,VALID,22.6299,VALID,72,VALID,0.854297,
2009-04-06, 02:29:04,VALID,998.237,VALID,0,VALID,94.7751,VALID,0,VALID,22.6299,VALID,83,VALID,0.711719,
2009-04-06, 02:30:04,VALID,998.234,VALID,0,VALID,94.8133,VALID,0,VALID,22.6104,VALID,83,VALID,0.63125,
2009-04-06, 02:31:04,VALID,998.221,VALID,0,VALID,94.7675,VALID,0,VALID,22.6104,VALID,83,VALID,0.510547,
2009-04-06, 02:32:04,VALID,998.205,VALID,0,VALID,94.8209,VALID,0,VALID,22.5909,VALID,82,VALID,0.703516,
2009-04-06, 02:33:04,VALID,998.206,VALID,0,VALID,94.798,VALID,0,VALID,22.5909,VALID,82,VALID,0.522656,
2009-04-06, 02:34:04,VALID,998.218,VALID,0,VALID,94.8209,VALID,0,VALID,22.5909,VALID,82,VALID,0.757813,
2009-04-06, 02:35:04,VALID,998.216,VALID,0,VALID,94.8209,VALID,0,VALID,22.5714,VALID,82,VALID,0.842969,
2009-04-06, 02:36:04,VALID,998.187,VALID,0,VALID,94.8133,VALID,0,VALID,22.5909,VALID,70,VALID,0.8625,
2009-04-06, 02:37:04,VALID,998.167,VALID,0,VALID,94.7828,VALID,0,VALID,22.5714,VALID,72,VALID,0.757031,
2009-04-06, 02:38:04,VALID,998.138,VALID,0,VALID,94.7828,VALID,0,VALID,22.5714,VALID,71,VALID,0.559375,
2009-04-06, 02:39:04,VALID,998.129,VALID,0,VALID,94.7523,VALID,0,VALID,22.5714,VALID,70,VALID,0.431641,
2009-04-06, 02:40:04,VALID,998.102,VALID,0,VALID,94.737,VALID,0,VALID,22.5306,VALID,70,VALID,0.224609,
2009-04-06, 02:41:04,VALID,998.071,VALID,0,VALID,94.737,VALID,0,VALID,22.5519,VALID,70,VALID,0.201562,
2009-04-06, 02:42:04,VALID,998.039,VALID,0,VALID,94.737,VALID,0,VALID,22.5128,VALID,70,VALID,0.296875,
2009-04-06, 02:43:04,VALID,998.013,VALID,0,VALID,94.7446,VALID,0,VALID,22.5128,VALID,68,VALID,0.413281,
2009-04-06, 02:44:04,VALID,998.003,VALID,0,VALID,94.7446,VALID,0,VALID,22.5128,VALID,64,VALID,0.378125,
2009-04-06, 02:45:04,VALID,997.964,VALID,0,VALID,94.7904,VALID,0,VALID,22.5128,VALID,21,VALID,0.369531,
2009-04-06, 02:46:04,VALID,997.964,VALID,0,VALID,94.7828,VALID,0,VALID,22.5128,VALID,10,VALID,0.552344,
2009-04-06, 02:47:04,VALID,997.949,VALID,0,VALID,94.7599,VALID,0,VALID,22.5128,VALID,349,VALID,0.688672,
2009-04-06, 02:48:04,VALID,997.953,VALID,0,VALID,94.8133,VALID,0,VALID,22.5128,VALID,349,VALID,0.489453,
2009-04-06, 02:49:04,VALID,997.957,VALID,0,VALID,94.8438,VALID,0,VALID,22.5323,VALID,349,VALID,0.382422,
2009-04-06, 02:50:04,VALID,998.017,VALID,0,VALID,94.882,VALID,0,VALID,22.5519,VALID,349,VALID,0.110937,
2009-04-06, 02:51:04,VALID,998.029,VALID,0,VALID,94.882,VALID,0,VALID,22.5714,VALID,349,VALID,0.150391,
2009-04-06, 02:52:04,VALID,998.012,VALID,0,VALID,94.882,VALID,0,VALID,22.5714,VALID,349,VALID,0.0488281,
2009-04-06, 02:53:04,VALID,998.015,VALID,0,VALID,94.9048,VALID,0,VALID,22.5909,VALID,349,VALID,0,
2009-04-06, 02:54:04,VALID,998.005,VALID,0,VALID,94.9125,VALID,0,VALID,22.6104,VALID,349,VALID,0.00117188,
2009-04-06, 02:55:04,VALID,998.002,VALID,0,VALID,94.9277,VALID,0,VALID,22.6104,VALID,349,VALID,0.0269531,
2009-04-06, 02:56:04,VALID,997.938,VALID,0,VALID,94.943,VALID,0,VALID,22.6104,VALID,349,VALID,0.236328,
2009-04-06, 02:57:04,VALID,997.944,VALID,0,VALID,94.9354,VALID,0,VALID,22.6299,VALID,349,VALID,0.321875,
2009-04-06, 02:58:04,VALID,997.919,VALID,0,VALID,94.8591,VALID,0,VALID,22.6104,VALID,349,VALID,0.444141,
2009-04-06, 02:59:04,VALID,997.884,VALID,0,VALID,94.798,VALID,0,VALID,22.6121,VALID,349,VALID,0.714453,
2009-04-06, 03:00:04,VALID,997.851,VALID,0,VALID,94.8285,VALID,0,VALID,22.5909,VALID,349,VALID,0.736719,
2009-04-06, 03:01:04,VALID,997.867,VALID,0,VALID,94.7828,VALID,0,VALID,22.5909,VALID,349,VALID,0.567187,
2009-04-06, 03:02:04,VALID,997.851,VALID,0,VALID,94.7751,VALID,0,VALID,22.5714,VALID,349,VALID,0.408984,
2009-04-06, 03:03:04,VALID,997.866,VALID,0,VALID,94.7065,VALID,0,VALID,22.5323,VALID,349,VALID,0.200391,
2009-04-06, 03:04:04,VALID,997.862,VALID,0,VALID,94.7523,VALID,0,VALID,22.5128,VALID,349,VALID,0.326562,
2009-04-06, 03:05:04,VALID,997.847,VALID,0,VALID,94.737,VALID,0,VALID,22.5128,VALID,349,VALID,0.316797,
2009-04-06, 03:06:04,VALID,997.879,VALID,0,VALID,94.7065,VALID,0,VALID,22.4933,VALID,349,VALID,0.322656,
2009-04-06, 03:07:04,VALID,997.876,VALID,0,VALID,94.7904,VALID,0,VALID,22.4738,VALID,349,VALID,0.679297,
2009-04-06, 03:08:04,VALID,997.895,VALID,0,VALID,94.9048,VALID,0,VALID,22.4933,VALID,34,VALID,0.865234,
2009-04-06, 03:09:04,VALID,997.866,VALID,0,VALID,94.8209,VALID,0,VALID,22.4721,VALID,34,VALID,1.12734,
2009-04-06, 03:10:04,VALID,997.849,VALID,0,VALID,94.8285,VALID,0,VALID,22.4933,VALID,46,VALID,1.18008,
2009-04-06, 03:11:04,VALID,997.866,VALID,0,VALID,94.8591,VALID,0,VALID,22.4933,VALID,47,VALID,1.2957,
2009-04-06, 03:12:04,VALID,997.811,VALID,0,VALID,94.9583,VALID,0,VALID,22.4933,VALID,49,VALID,1.14297,
2009-04-06, 03:13:04,VALID,997.788,VALID,0,VALID,94.943,VALID,0,VALID,22.5128,VALID,50,VALID,0.920313,
2009-04-06, 03:14:04,VALID,997.783,VALID,0,VALID,94.9048,VALID,0,VALID,22.5128,VALID,50,VALID,0.817187,
2009-04-06, 03:15:04,VALID,997.78,VALID,0,VALID,94.9354,VALID,0,VALID,22.5128,VALID,49,VALID,0.836719,
2009-04-06, 03:16:04,VALID,997.795,VALID,0,VALID,94.9048,VALID,0,VALID,22.4933,VALID,44,VALID,0.696094,
2009-04-06, 03:17:04,VALID,997.754,VALID,0,VALID,94.9125,VALID,0,VALID,22.4933,VALID,45,VALID,0.548828,
2009-04-06, 03:18:04,VALID,997.774,VALID,0,VALID,94.882,VALID,0,VALID,22.495,VALID,45,VALID,0.177344,
2009-04-06, 03:19:04,VALID,997.785,VALID,0,VALID,94.8896,VALID,0,VALID,22.4738,VALID,45,VALID,0,
2009-04-06, 03:20:04,VALID,997.762,VALID,0,VALID,94.9048,VALID,0,VALID,22.4738,VALID,45,VALID,0.0425781,
2009-04-06, 03:21:04,VALID,997.729,VALID,0,VALID,94.9735,VALID,0,VALID,22.4738,VALID,45,VALID,0.210156,
2009-04-06, 03:22:04,VALID,997.69,VALID,0,VALID,95.0345,VALID,0,VALID,22.4933,VALID,45,VALID,0.378516,
2009-04-06, 03:23:04,VALID,997.698,VALID,0,VALID,95.0727,VALID,0,VALID,22.5111,VALID,44,VALID,0.457812,
2009-04-06, 03:24:04,VALID,997.71,VALID,0,VALID,95.088,VALID,0,VALID,22.5519,VALID,44,VALID,0.36875,
2009-04-06, 03:25:04,VALID,997.754,VALID,0,VALID,95.0574,VALID,0,VALID,22.5323,VALID,44,VALID,0.373437,
2009-04-06, 03:26:04,VALID,997.737,VALID,0,VALID,95.0345,VALID,0,VALID,22.5323,VALID,44,VALID,0.407813,
2009-04-06, 03:27:04,VALID,997.765,VALID,0,VALID,95.0498,VALID,0,VALID,22.5519,VALID,44,VALID,0.414844,
2009-04-06, 03:28:04,VALID,997.81,VALID,0,VALID,95.088,VALID,0,VALID,22.5519,VALID,44,VALID,0.557813,
2009-04-06, 03:29:04,VALID,997.825,VALID,0,VALID,95.1032,VALID,0,VALID,22.5501,VALID,44,VALID,0.677734,
2009-04-06, 03:30:04,VALID,997.842,VALID,0,VALID,95.1185,VALID,0,VALID,22.5714,VALID,44,VALID,0.785156,
2009-04-06, 03:31:04,VALID,997.882,VALID,0,VALID,95.1108,VALID,0,VALID,22.5714,VALID,49,VALID,0.876172,
2009-04-06, 03:32:04,VALID,997.894,VALID,0,VALID,95.088,VALID,0,VALID,22.5714,VALID,50,VALID,0.927734,
2009-04-06, 03:33:04,VALID,997.894,VALID,0,VALID,95.0574,VALID,0,VALID,22.5714,VALID,50,VALID,0.764453,
2009-04-06, 03:34:04,VALID,997.883,VALID,0,VALID,95.0574,VALID,0,VALID,22.5519,VALID,50,VALID,0.717969,
2009-04-06, 03:35:04,VALID,997.895,VALID,0,VALID,95.0269,VALID,0,VALID,22.5323,VALID,50,VALID,0.624609,
2009-04-06, 03:36:04,VALID,997.891,VALID,0,VALID,95.0269,VALID,0,VALID,22.5128,VALID,50,VALID,0.569141,
2009-04-06, 03:37:04,VALID,997.874,VALID,0,VALID,95.0117,VALID,0,VALID,22.5128,VALID,50,VALID,0.524219,
2009-04-06, 03:38:04,VALID,997.911,VALID,0,VALID,95.0193,VALID,0,VALID,22.4933,VALID,50,VALID,0.389062,
2009-04-06, 03:39:04,VALID,997.907,VALID,0,VALID,95.0345,VALID,0,VALID,22.4526,VALID,50,VALID,0.308203,
2009-04-06, 03:40:04,VALID,997.937,VALID,0,VALID,95.0117,VALID,0,VALID,22.4738,VALID,50,VALID,0.123828,
2009-04-06, 03:41:04,VALID,997.948,VALID,0,VALID,95.004,VALID,0,VALID,22.4348,VALID,50,VALID,0.163672,
2009-04-06, 03:42:04,VALID,997.938,VALID,0,VALID,94.9659,VALID,0,VALID,22.3941,VALID,50,VALID,0.325391,
2009-04-06, 03:43:04,VALID,997.949,VALID,0,VALID,95.0193,VALID,0,VALID,22.417,VALID,33,VALID,0.678125,
2009-04-06, 03:44:04,VALID,997.963,VALID,0,VALID,95.0193,VALID,0,VALID,22.3958,VALID,26,VALID,0.797656,
2009-04-06, 03:45:04,VALID,997.94,VALID,0,VALID,95.0117,VALID,0,VALID,22.3763,VALID,16,VALID,0.878125,